Weather History for Shawano, WI

Change the Weather History Date:

Saturday, November 3, 2012

  Actual Average (KGRB) Record (KGRB)
Temperature  
Mean Temperature 34 °F 40 °F  
Max Temperature 41 °F 49 °F 72 °F (1938)
Min Temperature 28 °F 32 °F 7 °F (1951)
Degree Days  
Heating Degree Days 30 25  
Month to date heating degree days 73  
Since 1 July heating degree days 899  
Cooling Degree Days 0 0  
Month to date cooling degree days 0  
Year to date cooling degree days 398  
Moisture  
Dew Point 26 °F    
Average Humidity 75    
Maximum Humidity 93    
Minimum Humidity 57    
Precipitation  
Precipitation 0.00 in 0.07 in 1.03 in (1934)
Month to date precipitation 0.22  
Year to date precipitation 26.10  
Snow  
Snow 0.00 in 0.00 in 3.40 in (1951)
Month to date snowfall 0.1  
Since 1 July snowfall 0.3  
Since 1 September snowfall 0.3  
Snow Depth -    
Sea Level Pressure  
Sea Level Pressure 30.24 in    
Wind  
Wind Speed 4 mph (NE)    
Max Wind Speed 8 mph    
Max Gust Speed -    
Visibility 10 miles    
Events      
T = Trace of Precipitation, MM = Missing Value Source: NWS Daily Summary

Daily Weather History Graph

Daily Weather History Graph

Search for Another Location

Airport:

Trip Planner

Search our weather history database for the weather conditions in past years. The results will help you decide how hot, cold, wet, or windy it might be!

Date:

Astronomy

Nov. 03, 2012 Rise Set
Actual Time 7:35 AM CDT 5:39 PM CDT
Civil Twilight 7:04 AM CDT 6:10 PM CDT
Nautical Twilight 6:30 AM CDT 6:44 PM CDT
Astronomical Twilight 5:56 AM CDT 7:18 PM CDT
Moon 9:16 PM CDT (11/3) 11:44 AM CDT (11/3)
Length of Visible Light 11h 05m
Length of Day
10h 03m
Waning Gibbous, 80% of the Moon is Illuminated
Nov 3
Waning Gibbous
Nov 6
Last Quarter
Nov 13
New
Nov 20
First Quarter
Nov 28
Full

Hourly Weather History & Observations

Time (CDT) Temp. Windchill Dew Point Humidity Pressure Visibility Wind Dir Wind Speed Gust Speed Precip Events Conditions
12:15 AM 30.2 °F - 23.0 °F 75% 30.21 in 10.0 mi Calm Calm - N/A   Clear
12:35 AM 30.2 °F 24.3 °F 23.0 °F 75% 30.21 in 10.0 mi North 5.8 mph - N/A   Clear
12:55 AM 30.2 °F 26.7 °F 23.0 °F 75% 30.22 in 10.0 mi NNW 3.5 mph - N/A   Clear
1:15 AM 30.2 °F 24.3 °F 23.0 °F 75% 30.22 in 10.0 mi North 5.8 mph - N/A   Clear
1:35 AM 30.2 °F 24.3 °F 24.8 °F 80% 30.22 in 10.0 mi North 5.8 mph - N/A   Clear
1:55 AM 30.2 °F 24.3 °F 24.8 °F 80% 30.22 in 10.0 mi North 5.8 mph - N/A   Clear
2:15 AM 30.2 °F 26.7 °F 23.0 °F 75% 30.22 in 10.0 mi North 3.5 mph - N/A   Clear
2:35 AM 30.2 °F 23.4 °F 24.8 °F 80% 30.23 in 10.0 mi NNE 6.9 mph - N/A   Clear
2:55 AM 32.0 °F 25.6 °F 24.8 °F 75% 30.22 in 10.0 mi North 6.9 mph - N/A   Clear
3:15 AM 32.0 °F 25.6 °F 26.6 °F 80% 30.22 in 10.0 mi NNE 6.9 mph - N/A   Clear
3:35 AM 32.0 °F 25.6 °F 26.6 °F 80% 30.22 in 10.0 mi North 6.9 mph - N/A   Clear
3:55 AM 30.2 °F 23.4 °F 24.8 °F 80% 30.22 in 10.0 mi North 6.9 mph - N/A   Clear
4:15 AM 30.2 °F 25.4 °F 23.0 °F 75% 30.23 in 10.0 mi North 4.6 mph - N/A   Clear
4:35 AM 30.2 °F 23.4 °F 24.8 °F 80% 30.22 in 10.0 mi North 6.9 mph - N/A   Clear
4:55 AM 30.2 °F 22.6 °F 24.8 °F 80% 30.22 in 10.0 mi NNE 8.1 mph - N/A   Clear
5:15 AM 32.0 °F 25.6 °F 26.6 °F 80% 30.22 in 10.0 mi NNE 6.9 mph - N/A   Clear
5:35 AM 30.2 °F 23.4 °F 26.6 °F 86% 30.23 in 10.0 mi North 6.9 mph - N/A   Clear
5:55 AM 30.2 °F 24.3 °F 26.6 °F 86% 30.23 in 10.0 mi NNE 5.8 mph - N/A   Clear
6:15 AM 32.0 °F 27.5 °F 26.6 °F 80% 30.24 in 10.0 mi North 4.6 mph - N/A   Clear
6:35 AM 32.0 °F 26.4 °F 26.6 °F 80% 30.24 in 10.0 mi North 5.8 mph - N/A   Clear
6:55 AM 32.0 °F 26.4 °F 26.6 °F 80% 30.24 in 10.0 mi North 5.8 mph - N/A   Scattered Clouds
7:15 AM 32.0 °F 26.4 °F 26.6 °F 80% 30.24 in 10.0 mi North 5.8 mph - N/A   Clear
7:35 AM 32.0 °F 25.6 °F 26.6 °F 80% 30.24 in 10.0 mi North 6.9 mph - N/A   Clear
7:55 AM 32.0 °F 27.5 °F 26.6 °F 80% 30.24 in 10.0 mi North 4.6 mph - N/A   Scattered Clouds
8:15 AM 32.0 °F - 24.8 °F 75% 30.25 in 10.0 mi Calm Calm - N/A   Scattered Clouds
8:35 AM 32.0 °F 28.7 °F 24.8 °F 75% 30.26 in 10.0 mi NNW 3.5 mph - N/A   Clear
8:55 AM 32.0 °F 27.5 °F 24.8 °F 75% 30.25 in 10.0 mi North 4.6 mph - N/A   Clear
9:15 AM 32.0 °F 28.7 °F 26.6 °F 80% 30.26 in 10.0 mi North 3.5 mph - N/A   Scattered Clouds
9:35 AM 33.8 °F 27.7 °F 26.6 °F 75% 30.26 in 10.0 mi NNE 6.9 mph - N/A   Clear
9:55 AM 33.8 °F 27.7 °F 26.6 °F 75% 30.26 in 10.0 mi NE 6.9 mph - N/A   Clear
10:15 AM 35.6 °F 30.7 °F 26.6 °F 70% 30.26 in 10.0 mi ENE 5.8 mph - N/A   Clear
10:35 AM 35.6 °F 30.7 °F 26.6 °F 70% 30.26 in 10.0 mi NE 5.8 mph - N/A   Clear
10:55 AM 35.6 °F 32.8 °F 26.6 °F 70% 30.26 in 10.0 mi NE 3.5 mph - N/A   Mostly Cloudy
11:15 AM 35.6 °F 32.8 °F 26.6 °F 70% 30.27 in 10.0 mi ENE 3.5 mph - N/A   Overcast
11:35 AM 35.6 °F 32.8 °F 26.6 °F 70% 30.28 in 10.0 mi North 3.5 mph - N/A   Overcast
11:55 AM 35.6 °F - 26.6 °F 70% 30.27 in 10.0 mi Calm Calm - N/A   Mostly Cloudy
12:15 PM 37.4 °F 34.9 °F 26.6 °F 65% 30.26 in 10.0 mi ENE 3.5 mph - N/A   Mostly Cloudy
12:35 PM 35.6 °F 32.8 °F 26.6 °F 70% 30.26 in 10.0 mi East 3.5 mph - N/A   Overcast
12:55 PM 37.4 °F 33.8 °F 26.6 °F 65% 30.26 in 10.0 mi ENE 4.6 mph - N/A   Overcast
1:15 PM 39.2 °F 34.2 °F 26.6 °F 61% 30.25 in 10.0 mi ENE 6.9 mph - N/A   Scattered Clouds
1:35 PM 37.4 °F 33.8 °F 26.6 °F 65% 30.24 in 10.0 mi East 4.6 mph - N/A   Clear
1:55 PM 37.4 °F 34.9 °F 26.6 °F 65% 30.24 in 10.0 mi East 3.5 mph - N/A   Clear
2:15 PM 39.2 °F 37.0 °F 26.6 °F 61% 30.24 in 10.0 mi East 3.5 mph - N/A   Scattered Clouds
2:35 PM 41.0 °F 38.0 °F 26.6 °F 57% 30.23 in 10.0 mi East 4.6 mph - N/A   Scattered Clouds
2:55 PM 41.0 °F 37.1 °F 26.6 °F 57% 30.23 in 10.0 mi East 5.8 mph - N/A   Clear
3:15 PM 41.0 °F 38.0 °F 26.6 °F 57% 30.23 in 10.0 mi ENE 4.6 mph - N/A   Clear
3:35 PM 41.0 °F - 26.6 °F 57% 30.22 in 10.0 mi Calm Calm - N/A   Clear
3:55 PM 41.0 °F 38.0 °F 26.6 °F 57% 30.22 in 10.0 mi ENE 4.6 mph - N/A   Clear
4:15 PM 39.2 °F 35.0 °F 26.6 °F 61% 30.22 in 10.0 mi East 5.8 mph - N/A   Clear
4:35 PM 37.4 °F 33.8 °F 26.6 °F 65% 30.22 in 10.0 mi ENE 4.6 mph - N/A   Clear
4:55 PM 37.4 °F 32.8 °F 26.6 °F 65% 30.22 in 10.0 mi NE 5.8 mph - N/A   Clear
5:15 PM 37.4 °F 33.8 °F 26.6 °F 65% 30.22 in 10.0 mi ENE 4.6 mph - N/A   Clear
5:35 PM 37.4 °F 33.8 °F 26.6 °F 65% 30.22 in 10.0 mi ENE 4.6 mph - N/A   Clear
5:55 PM 37.4 °F 34.9 °F 26.6 °F 65% 30.22 in 10.0 mi ENE 3.5 mph - N/A   Clear
6:15 PM 35.6 °F 32.8 °F 26.6 °F 70% 30.22 in 10.0 mi ENE 3.5 mph - N/A   Clear
6:35 PM 33.8 °F - 24.8 °F 70% 30.22 in 10.0 mi Calm Calm - N/A   Clear
6:55 PM 32.0 °F - 26.6 °F 80% 30.23 in 10.0 mi Calm Calm - N/A   Clear
7:15 PM 32.0 °F - 24.8 °F 75% 30.23 in 10.0 mi Calm Calm - N/A   Clear
7:35 PM 30.2 °F - 24.8 °F 80% 30.24 in 10.0 mi Calm Calm - N/A   Clear
7:55 PM 32.0 °F - 26.6 °F 80% 30.24 in 10.0 mi Calm Calm - N/A   Clear
8:15 PM 32.0 °F - 26.6 °F 80% 30.24 in 10.0 mi Calm Calm - N/A   Clear
8:35 PM 32.0 °F - 26.6 °F 80% 30.24 in 10.0 mi Calm Calm - N/A   Clear
8:55 PM 32.0 °F - 26.6 °F 80% 30.24 in 10.0 mi Calm Calm - N/A   Clear
9:15 PM 32.0 °F - 26.6 °F 80% 30.25 in 10.0 mi Calm Calm - N/A   Clear
9:35 PM 32.0 °F - 26.6 °F 80% 30.25 in 10.0 mi Calm Calm - N/A   Clear
9:55 PM 30.2 °F - 26.6 °F 86% 30.25 in 10.0 mi Calm Calm - N/A   Clear
10:15 PM 32.0 °F - 26.6 °F 80% 30.25 in 10.0 mi Calm Calm - N/A   Clear
10:35 PM 30.2 °F - 26.6 °F 86% 30.25 in 10.0 mi Calm Calm - N/A   Clear
10:55 PM 28.4 °F - 26.6 °F 93% 30.25 in 10.0 mi Calm Calm - N/A   Clear
11:15 PM 28.4 °F - 24.8 °F 86% 30.25 in 10.0 mi Calm Calm - N/A   Clear
11:35 PM 28.4 °F - 26.6 °F 93% 30.25 in 10.0 mi Calm Calm - N/A   Clear
11:55 PM 28.4 °F - 26.6 °F 93% 30.25 in 10.0 mi Calm Calm - N/A   Clear